GFSFLT1_prec_precacc_192.txt.gz
Total_Precipitation_Accumulation
0.00 0.00 0.02 0.03 0.03 0.26 0.64 0.84 1.09 1.18 1.10 0.96 0.77 0.73 0.66 0.67 0.60 0.64 0.73 0.76 0.72 0.84 0.76 0.75 1.02 1.33 1.02 0.93 0.79 0.80 0.71 0.64
0.00 0.01 0.02 0.04 0.10 0.40 0.69 0.82 1.10 1.07 0.60 0.50 0.53 0.52 0.40 0.55 0.57 0.64 0.81 1.02 1.01 0.91 0.83 0.81 0.94 0.97 0.94 1.15 1.38 1.56 1.32 0.89
0.01 0.03 0.06 0.12 0.24 0.52 0.61 0.48 0.33 0.16 0.11 0.21 0.36 0.47 0.48 0.46 0.54 0.71 0.67 0.99 1.00 0.85 0.86 0.85 0.99 1.09 0.99 0.79 0.87 0.97 0.97 0.88
0.02 0.06 0.13 0.17 0.15 0.15 0.10 0.07 0.05 0.09 0.12 0.31 0.53 0.86 0.80 0.67 0.54 0.57 0.73 0.91 1.08 0.98 0.88 0.78 0.79 1.17 1.42 1.19 1.07 1.02 0.87 0.84
0.03 0.02 0.01 0.01 0.02 0.11 0.10 0.08 0.08 0.12 0.14 0.24 0.41 0.41 0.31 0.23 0.23 0.28 0.41 0.75 1.13 0.93 1.17 1.24 1.16 0.93 1.08 1.44 1.39 1.18 1.20 1.17
0.00 0.00 0.01 0.04 0.06 0.11 0.12 0.11 0.11 0.09 0.12 0.19 0.48 0.55 0.52 0.50 0.61 0.77 0.89 1.05 1.37 1.33 1.13 1.56 1.67 1.59 1.25 1.52 1.85 2.00 1.81 1.77
0.01 0.03 0.06 0.06 0.09 0.10 0.07 0.13 0.10 0.16 0.21 0.25 0.36 0.49 0.54 0.55 0.56 0.64 0.80 1.03 1.37 1.55 1.76 1.79 2.24 2.23 2.02 1.72 1.68 2.05 2.41 2.30
0.09 0.09 0.08 0.08 0.06 0.07 0.14 0.18 0.19 0.21 0.37 0.46 0.47 0.54 0.68 0.45 0.33 0.41 0.50 0.71 0.69 0.81 0.99 1.22 1.46 1.87 1.70 1.73 1.68 1.49 1.48 1.47
0.17 0.18 0.16 0.14 0.11 0.06 0.12 0.15 0.27 0.28 0.41 0.56 0.70 0.64 0.76 0.64 0.48 0.58 0.50 0.49 0.53 0.71 0.91 1.13 1.27 1.70 1.91 1.55 1.42 1.65 1.70 1.56
0.32 0.28 0.25 0.26 0.23 0.18 0.22 0.25 0.34 0.39 0.42 0.54 0.84 1.03 0.94 0.87 0.82 1.22 1.23 0.80 0.66 0.76 1.23 1.61 1.81 2.21 2.15 2.40 2.05 1.54 1.89 1.81
0.42 0.52 0.51 0.36 0.39 0.33 0.30 0.31 0.34 0.37 0.43 0.54 0.75 0.99 1.16 1.04 1.07 1.23 1.55 1.58 1.26 1.23 1.40 1.63 2.03 1.92 2.09 2.05 2.17 1.54 1.14 1.30
0.62 0.97 0.96 0.68 0.61 0.52 0.46 0.45 0.47 0.49 0.56 0.54 0.66 1.01 0.99 1.50 1.93 1.89 2.02 2.29 2.20 1.87 1.54 1.67 1.74 1.95 2.13 1.76 1.54 1.46 1.34 1.15
0.60 0.56 0.78 1.15 1.07 0.71 0.54 0.50 0.69 1.15 1.41 1.47 1.29 1.66 1.90 1.99 2.34 2.24 1.78 2.47 2.53 2.32 2.32 1.93 2.17 1.90 1.63 1.56 1.39 1.22 1.32 1.28
1.12 1.01 0.79 0.63 0.94 1.05 0.78 0.82 1.47 1.96 1.95 2.01 1.70 2.01 2.25 2.61 2.49 2.34 2.20 2.02 2.44 2.34 2.37 2.28 1.71 1.95 1.45 1.16 1.13 1.27 1.11 1.38
1.12 1.16 1.31 1.27 0.83 0.99 1.03 1.02 1.61 1.85 1.31 1.27 1.55 1.69 1.48 1.56 1.50 1.72 1.91 1.95 1.82 1.70 1.80 1.79 1.57 1.22 1.40 1.25 1.08 0.91 1.01 0.88
0.94 1.47 1.11 0.97 1.08 1.03 0.96 1.06 1.06 1.34 1.23 1.04 1.00 1.08 1.25 0.96 0.87 1.04 1.47 1.45 1.47 1.66 1.71 1.71 1.79 1.45 1.18 1.23 1.21 0.96 0.94 0.95
0.69 0.96 1.44 0.83 0.65 0.72 0.76 0.94 1.10 0.96 0.95 0.88 0.81 0.72 0.76 0.78 0.81 0.71 0.78 0.96 1.03 1.09 1.29 1.69 1.92 2.02 1.78 1.27 1.06 1.09 1.07 0.97
0.46 0.47 1.06 1.06 0.79 0.75 0.67 0.85 0.99 0.85 0.85 0.80 0.61 0.50 0.47 0.39 0.32 0.34 0.38 0.54 0.72 0.93 1.05 1.04 1.16 1.49 1.90 1.62 1.41 1.11 1.05 1.09
0.47 0.55 0.76 1.01 0.71 0.59 0.57 0.66 0.87 0.80 0.69 0.68 0.64 0.46 0.37 0.38 0.30 0.32 0.38 0.46 0.47 0.40 0.38 0.41 0.47 0.64 0.97 1.09 1.30 1.24 1.27 1.20

GFSFLT1_prec_precacc_198.txt.gz
Total_Precipitation_Accumulation
0.00 0.00 0.02 0.03 0.03 0.26 0.64 0.84 1.09 1.18 1.10 0.96 0.77 0.73 0.66 0.67 0.60 0.64 0.73 0.76 0.72 0.84 0.76 0.75 1.02 1.33 1.02 0.93 0.79 0.80 0.71 0.64
0.00 0.01 0.02 0.04 0.10 0.40 0.69 0.82 1.10 1.08 0.61 0.50 0.53 0.52 0.40 0.55 0.57 0.64 0.81 1.02 1.01 0.91 0.83 0.81 0.94 0.97 0.94 1.15 1.38 1.56 1.32 0.89
0.01 0.03 0.06 0.12 0.24 0.52 0.61 0.48 0.33 0.16 0.12 0.22 0.36 0.47 0.48 0.46 0.54 0.71 0.67 0.99 1.00 0.85 0.86 0.85 0.99 1.09 0.99 0.79 0.87 0.97 0.97 0.88
0.02 0.06 0.13 0.17 0.15 0.16 0.12 0.10 0.08 0.11 0.13 0.32 0.54 0.86 0.80 0.67 0.54 0.57 0.73 0.91 1.08 0.98 0.88 0.78 0.79 1.17 1.42 1.19 1.07 1.02 0.87 0.84
0.03 0.02 0.01 0.01 0.03 0.14 0.15 0.14 0.14 0.16 0.17 0.26 0.42 0.41 0.31 0.23 0.23 0.28 0.41 0.75 1.13 0.93 1.17 1.24 1.16 0.93 1.08 1.44 1.39 1.18 1.20 1.17
0.00 0.00 0.01 0.05 0.09 0.16 0.18 0.17 0.16 0.15 0.17 0.22 0.50 0.58 0.53 0.50 0.61 0.77 0.89 1.05 1.37 1.33 1.13 1.56 1.67 1.59 1.25 1.52 1.85 2.00 1.81 1.77
0.01 0.03 0.07 0.08 0.13 0.17 0.14 0.27 0.35 0.51 0.59 0.60 0.61 0.66 0.61 0.57 0.56 0.64 0.80 1.03 1.37 1.55 1.76 1.79 2.24 2.23 2.02 1.72 1.68 2.05 2.41 2.30
0.09 0.10 0.11 0.15 0.15 0.18 0.41 0.84 1.09 1.02 0.98 0.84 0.66 0.62 0.72 0.47 0.34 0.41 0.50 0.71 0.69 0.81 0.99 1.22 1.46 1.87 1.70 1.73 1.68 1.49 1.48 1.47
0.18 0.21 0.22 0.24 0.25 0.41 0.89 0.91 0.79 0.64 0.65 0.69 0.77 0.67 0.77 0.65 0.48 0.58 0.50 0.49 0.53 0.71 0.91 1.13 1.27 1.70 1.91 1.55 1.42 1.65 1.70 1.56
0.34 0.31 0.30 0.34 0.37 0.41 0.40 0.33 0.40 0.43 0.43 0.54 0.85 1.03 0.94 0.87 0.82 1.22 1.23 0.80 0.66 0.76 1.23 1.61 1.81 2.21 2.15 2.40 2.05 1.54 1.89 1.81
0.43 0.53 0.52 0.37 0.40 0.34 0.30 0.31 0.35 0.37 0.43 0.55 0.75 0.99 1.16 1.04 1.07 1.23 1.55 1.58 1.26 1.23 1.40 1.63 2.03 1.92 2.09 2.05 2.17 1.54 1.14 1.30
0.62 0.97 0.96 0.68 0.61 0.52 0.46 0.45 0.47 0.49 0.56 0.54 0.66 1.01 0.99 1.50 1.93 1.89 2.02 2.29 2.20 1.87 1.54 1.67 1.74 1.95 2.13 1.76 1.54 1.46 1.34 1.15
0.60 0.56 0.78 1.16 1.08 0.72 0.57 0.51 0.70 1.16 1.42 1.48 1.30 1.67 1.90 1.99 2.34 2.24 1.78 2.47 2.53 2.32 2.32 1.93 2.17 1.90 1.63 1.56 1.39 1.22 1.32 1.28
1.12 1.01 0.79 0.63 0.95 1.08 0.81 0.83 1.49 1.98 1.96 2.02 1.71 2.02 2.26 2.61 2.49 2.34 2.20 2.02 2.44 2.34 2.37 2.28 1.71 1.95 1.45 1.16 1.13 1.27 1.11 1.38
1.12 1.16 1.31 1.27 0.84 1.00 1.03 1.03 1.64 1.90 1.36 1.31 1.57 1.71 1.49 1.56 1.50 1.72 1.92 1.97 1.83 1.71 1.80 1.79 1.57 1.22 1.40 1.25 1.08 0.91 1.01 0.88
0.94 1.47 1.11 0.97 1.09 1.03 0.97 1.09 1.11 1.43 1.33 1.12 1.06 1.12 1.25 0.96 0.87 1.04 1.48 1.50 1.55 1.71 1.73 1.72 1.79 1.45 1.18 1.23 1.21 0.96 0.94 0.95
0.69 0.96 1.44 0.83 0.65 0.72 0.76 0.97 1.14 1.03 1.02 0.94 0.85 0.75 0.77 0.78 0.81 0.71 0.78 0.97 1.05 1.16 1.38 1.76 1.96 2.04 1.80 1.28 1.07 1.09 1.07 0.97
0.46 0.47 1.06 1.06 0.79 0.75 0.67 0.86 1.00 0.87 0.87 0.83 0.64 0.53 0.49 0.40 0.32 0.34 0.38 0.54 0.73 0.95 1.09 1.11 1.20 1.51 1.91 1.62 1.41 1.11 1.05 1.09
0.47 0.55 0.76 1.01 0.71 0.59 0.57 0.66 0.87 0.81 0.70 0.69 0.65 0.47 0.38 0.40 0.36 0.41 0.43 0.47 0.47 0.41 0.41 0.44 0.48 0.65 0.98 1.09 1.30 1.24 1.27 1.20

GFSFLT1_prec_precacc_201.txt.gz
Total_Precipitation_Accumulation
0.00 0.00 0.02 0.03 0.03 0.26 0.64 0.84 1.09 1.18 1.10 0.96 0.77 0.73 0.66 0.67 0.60 0.64 0.73 0.76 0.72 0.84 0.76 0.75 1.02 1.33 1.02 0.93 0.79 0.80 0.71 0.64
0.00 0.01 0.02 0.04 0.10 0.40 0.69 0.82 1.10 1.08 0.61 0.51 0.54 0.52 0.40 0.55 0.57 0.64 0.81 1.02 1.01 0.91 0.83 0.81 0.94 0.97 0.94 1.15 1.38 1.56 1.32 0.89
0.01 0.03 0.06 0.12 0.24 0.52 0.61 0.48 0.33 0.17 0.13 0.26 0.39 0.48 0.48 0.46 0.54 0.71 0.67 0.99 1.00 0.85 0.86 0.85 0.99 1.09 0.99 0.79 0.87 0.97 0.97 0.88
0.02 0.06 0.13 0.17 0.15 0.16 0.12 0.10 0.08 0.12 0.15 0.35 0.57 0.88 0.81 0.67 0.54 0.57 0.73 0.91 1.08 0.98 0.88 0.78 0.79 1.17 1.42 1.19 1.07 1.02 0.87 0.84
0.03 0.02 0.01 0.01 0.03 0.14 0.15 0.14 0.14 0.18 0.22 0.31 0.46 0.44 0.33 0.24 0.23 0.28 0.41 0.75 1.13 0.93 1.17 1.24 1.16 0.93 1.08 1.44 1.39 1.18 1.20 1.17
0.00 0.00 0.01 0.05 0.09 0.16 0.18 0.17 0.17 0.19 0.27 0.32 0.60 0.68 0.63 0.57 0.65 0.77 0.89 1.05 1.37 1.33 1.13 1.56 1.67 1.59 1.25 1.52 1.85 2.00 1.81 1.77
0.01 0.03 0.07 0.08 0.13 0.17 0.14 0.27 0.39 0.68 0.91 1.05 1.16 1.26 1.19 1.07 0.90 0.78 0.84 1.04 1.37 1.55 1.76 1.79 2.24 2.23 2.02 1.72 1.68 2.05 2.41 2.30
0.09 0.10 0.11 0.15 0.15 0.18 0.41 0.89 1.24 1.24 1.20 1.14 1.06 1.04 1.08 0.73 0.49 0.50 0.55 0.74 0.70 0.81 0.99 1.22 1.46 1.87 1.70 1.73 1.68 1.49 1.48 1.47
0.18 0.21 0.22 0.24 0.25 0.41 0.91 0.93 0.81 0.70 0.75 0.80 0.90 0.82 0.91 0.77 0.58 0.66 0.54 0.50 0.53 0.71 0.91 1.13 1.27 1.70 1.91 1.55 1.42 1.65 1.70 1.56
0.34 0.31 0.30 0.34 0.37 0.41 0.41 0.34 0.41 0.44 0.45 0.55 0.85 1.04 0.94 0.88 0.82 1.22 1.23 0.80 0.66 0.76 1.23 1.61 1.81 2.21 2.15 2.40 2.05 1.54 1.89 1.81
0.43 0.53 0.52 0.37 0.40 0.34 0.30 0.32 0.35 0.37 0.44 0.56 0.77 1.00 1.16 1.04 1.08 1.23 1.55 1.58 1.26 1.23 1.40 1.63 2.03 1.92 2.09 2.05 2.17 1.54 1.14 1.30
0.62 0.97 0.96 0.68 0.61 0.53 0.49 0.49 0.49 0.52 0.57 0.56 0.72 1.08 1.02 1.50 1.93 1.90 2.03 2.29 2.20 1.87 1.54 1.67 1.74 1.95 2.13 1.76 1.54 1.46 1.34 1.15
0.60 0.56 0.78 1.16 1.08 0.73 0.60 0.58 0.77 1.24 1.49 1.52 1.36 1.73 1.96 2.01 2.34 2.25 1.79 2.47 2.53 2.32 2.32 1.93 2.18 1.90 1.63 1.56 1.39 1.22 1.32 1.28
1.12 1.01 0.79 0.63 0.95 1.08 0.82 0.85 1.54 2.06 2.03 2.07 1.74 2.05 2.30 2.66 2.50 2.34 2.21 2.03 2.48 2.37 2.39 2.28 1.71 1.95 1.45 1.16 1.13 1.27 1.11 1.38
1.12 1.16 1.31 1.27 0.84 1.00 1.03 1.04 1.67 1.93 1.40 1.35 1.61 1.75 1.56 1.61 1.52 1.72 1.92 1.97 1.84 1.72 1.81 1.80 1.58 1.22 1.40 1.25 1.08 0.91 1.01 0.88
0.94 1.47 1.11 0.97 1.09 1.03 0.97 1.09 1.11 1.43 1.34 1.14 1.09 1.17 1.32 1.00 0.88 1.05 1.48 1.50 1.56 1.76 1.78 1.77 1.83 1.47 1.19 1.23 1.21 0.96 0.94 0.95
0.69 0.96 1.44 0.83 0.65 0.72 0.76 0.97 1.14 1.03 1.02 0.94 0.86 0.78 0.80 0.82 0.82 0.72 0.78 0.97 1.06 1.16 1.40 1.81 2.05 2.13 1.88 1.33 1.08 1.09 1.07 0.97
0.46 0.47 1.06 1.06 0.79 0.75 0.67 0.86 1.00 0.87 0.87 0.83 0.64 0.54 0.51 0.42 0.34 0.35 0.39 0.54 0.73 0.95 1.09 1.15 1.27 1.56 1.95 1.65 1.42 1.11 1.05 1.09
0.47 0.55 0.76 1.01 0.71 0.59 0.57 0.66 0.87 0.81 0.70 0.69 0.65 0.47 0.38 0.40 0.37 0.42 0.47 0.51 0.50 0.43 0.41 0.45 0.52 0.71 1.03 1.11 1.30 1.24 1.27 1.20

GFSFLT1_prec_precacc_204.txt.gz
Total_Precipitation_Accumulation
0.00 0.00 0.02 0.03 0.03 0.26 0.64 0.84 1.09 1.18 1.10 0.96 0.77 0.73 0.66 0.67 0.60 0.64 0.73 0.76 0.72 0.84 0.76 0.75 1.02 1.33 1.02 0.93 0.79 0.80 0.71 0.64
0.00 0.01 0.02 0.04 0.10 0.40 0.69 0.82 1.10 1.08 0.61 0.51 0.55 0.54 0.41 0.56 0.57 0.64 0.82 1.02 1.01 0.91 0.83 0.81 0.94 0.97 0.94 1.15 1.38 1.56 1.32 0.89
0.01 0.03 0.06 0.12 0.24 0.52 0.61 0.48 0.33 0.17 0.13 0.26 0.40 0.49 0.49 0.46 0.54 0.72 0.67 1.00 1.00 0.85 0.86 0.85 0.99 1.09 0.99 0.79 0.87 0.97 0.97 0.88
0.02 0.06 0.13 0.17 0.15 0.16 0.12 0.10 0.08 0.12 0.15 0.36 0.58 0.89 0.82 0.68 0.55 0.57 0.73 0.91 1.08 0.98 0.88 0.78 0.79 1.17 1.42 1.19 1.07 1.02 0.87 0.84
0.03 0.02 0.01 0.01 0.03 0.14 0.15 0.14 0.14 0.19 0.25 0.36 0.51 0.49 0.36 0.26 0.25 0.29 0.41 0.75 1.13 0.93 1.17 1.24 1.16 0.93 1.08 1.44 1.39 1.18 1.20 1.17
0.00 0.00 0.01 0.05 0.09 0.16 0.18 0.17 0.17 0.19 0.29 0.39 0.70 0.78 0.74 0.71 0.81 0.93 0.99 1.11 1.39 1.34 1.13 1.56 1.67 1.59 1.25 1.52 1.85 2.00 1.81 1.77
0.01 0.03 0.07 0.08 0.13 0.17 0.14 0.27 0.40 0.68 0.92 1.09 1.26 1.42 1.41 1.39 1.32 1.27 1.33 1.45 1.60 1.66 1.78 1.79 2.24 2.23 2.02 1.72 1.68 2.05 2.41 2.30
0.09 0.10 0.11 0.15 0.15 0.18 0.41 0.89 1.24 1.24 1.20 1.15 1.09 1.09 1.17 0.84 0.64 0.65 0.73 0.92 0.86 0.93 1.06 1.25 1.46 1.87 1.70 1.73 1.68 1.49 1.48 1.47
0.18 0.21 0.22 0.24 0.25 0.41 0.91 0.93 0.81 0.70 0.75 0.80 0.90 0.82 0.92 0.78 0.61 0.71 0.60 0.56 0.58 0.75 0.94 1.15 1.28 1.70 1.91 1.55 1.42 1.65 1.70 1.56
0.34 0.31 0.30 0.34 0.37 0.41 0.41 0.34 0.41 0.44 0.45 0.55 0.85 1.04 0.95 0.88 0.84 1.24 1.27 0.87 0.73 0.82 1.26 1.63 1.81 2.21 2.15 2.40 2.05 1.54 1.89 1.81
0.43 0.53 0.52 0.37 0.40 0.34 0.30 0.33 0.35 0.37 0.44 0.56 0.77 1.00 1.17 1.07 1.14 1.29 1.58 1.62 1.28 1.24 1.40 1.63 2.03 1.92 2.09 2.05 2.17 1.54 1.14 1.30
0.62 0.97 0.96 0.68 0.61 0.53 0.49 0.51 0.51 0.53 0.60 0.59 0.76 1.13 1.07 1.54 1.95 1.93 2.08 2.32 2.21 1.87 1.54 1.67 1.74 1.95 2.13 1.76 1.54 1.46 1.34 1.15
0.60 0.56 0.78 1.16 1.08 0.73 0.60 0.59 0.80 1.29 1.59 1.59 1.43 1.81 2.04 2.06 2.36 2.25 1.80 2.49 2.55 2.33 2.32 1.93 2.18 1.90 1.63 1.56 1.39 1.22 1.32 1.28
1.12 1.01 0.79 0.63 0.95 1.08 0.82 0.85 1.55 2.08 2.08 2.15 1.81 2.10 2.34 2.69 2.53 2.35 2.21 2.03 2.49 2.40 2.41 2.29 1.71 1.95 1.45 1.17 1.13 1.27 1.11 1.38
1.12 1.16 1.31 1.27 0.84 1.00 1.03 1.04 1.67 1.94 1.41 1.38 1.66 1.77 1.60 1.66 1.55 1.73 1.92 1.97 1.84 1.73 1.86 1.87 1.61 1.23 1.41 1.27 1.08 0.91 1.01 0.88
0.94 1.47 1.11 0.97 1.09 1.03 0.97 1.09 1.11 1.43 1.34 1.15 1.10 1.23 1.37 1.04 0.94 1.07 1.49 1.50 1.56 1.76 1.78 1.78 1.89 1.53 1.24 1.27 1.25 0.97 0.94 0.95
0.69 0.96 1.44 0.83 0.65 0.72 0.76 0.97 1.14 1.03 1.02 0.94 0.86 0.78 0.81 0.84 0.87 0.75 0.78 0.98 1.06 1.17 1.40 1.81 2.06 2.17 1.93 1.40 1.16 1.15 1.08 0.97
0.46 0.47 1.06 1.06 0.79 0.75 0.67 0.86 1.00 0.87 0.87 0.83 0.64 0.54 0.51 0.43 0.35 0.36 0.39 0.55 0.77 1.03 1.15 1.15 1.27 1.57 1.97 1.68 1.47 1.16 1.10 1.12
0.47 0.55 0.76 1.01 0.71 0.59 0.57 0.66 0.87 0.81 0.70 0.69 0.65 0.47 0.38 0.40 0.37 0.42 0.47 0.51 0.51 0.44 0.45 0.47 0.53 0.71 1.04 1.12 1.32 1.25 1.28 1.22

GFSFLT1_prec_precacc_210.txt.gz
Total_Precipitation_Accumulation
0.00 0.00 0.02 0.03 0.03 0.26 0.67 0.87 1.10 1.19 1.10 0.96 0.78 0.74 0.66 0.67 0.60 0.64 0.73 0.76 0.72 0.85 0.76 0.75 1.02 1.33 1.02 0.93 0.79 0.80 0.71 0.64
0.00 0.01 0.02 0.04 0.10 0.40 0.70 0.83 1.10 1.08 0.61 0.52 0.56 0.55 0.42 0.56 0.58 0.64 0.82 1.02 1.01 0.91 0.83 0.81 0.94 0.97 0.94 1.15 1.38 1.56 1.32 0.89
0.01 0.03 0.06 0.12 0.24 0.52 0.61 0.48 0.34 0.17 0.13 0.26 0.40 0.49 0.49 0.47 0.54 0.72 0.67 1.00 1.00 0.85 0.86 0.85 0.99 1.09 0.99 0.79 0.87 0.97 0.97 0.88
0.02 0.06 0.13 0.17 0.15 0.16 0.12 0.10 0.08 0.12 0.15 0.36 0.58 0.89 0.82 0.68 0.56 0.57 0.73 0.91 1.08 0.98 0.88 0.78 0.79 1.17 1.42 1.19 1.08 1.02 0.88 0.84
0.03 0.02 0.01 0.01 0.03 0.14 0.15 0.14 0.14 0.19 0.25 0.36 0.52 0.50 0.38 0.27 0.26 0.30 0.42 0.76 1.13 0.93 1.18 1.25 1.16 0.93 1.08 1.44 1.39 1.19 1.20 1.17
0.00 0.00 0.01 0.05 0.09 0.16 0.18 0.17 0.17 0.19 0.29 0.39 0.71 0.79 0.77 0.73 0.84 0.98 1.05 1.18 1.45 1.39 1.18 1.61 1.73 1.63 1.28 1.55 1.88 2.01 1.83 1.78
0.01 0.03 0.07 0.08 0.13 0.17 0.14 0.27 0.40 0.68 0.92 1.09 1.26 1.43 1.43 1.42 1.38 1.38 1.45 1.64 1.92 2.00 2.12 2.06 2.46 2.40 2.15 1.83 1.78 2.14 2.53 2.42
0.09 0.10 0.11 0.15 0.15 0.18 0.41 0.89 1.24 1.24 1.20 1.15 1.09 1.09 1.17 0.84 0.65 0.67 0.75 0.95 0.92 1.00 1.17 1.39 1.63 2.03 1.87 1.88 1.81 1.62 1.65 1.65
0.18 0.21 0.22 0.24 0.25 0.41 0.91 0.93 0.81 0.70 0.75 0.80 0.90 0.82 0.92 0.78 0.61 0.71 0.61 0.57 0.59 0.77 0.99 1.25 1.41 1.84 2.05 1.67 1.55 1.78 1.82 1.69
0.34 0.31 0.30 0.34 0.37 0.41 0.41 0.34 0.41 0.44 0.46 0.55 0.85 1.04 0.95 0.89 0.85 1.25 1.29 0.90 0.79 0.90 1.38 1.77 1.99 2.41 2.31 2.55 2.21 1.69 2.01 1.92
0.43 0.53 0.52 0.37 0.40 0.34 0.30 0.33 0.36 0.39 0.46 0.59 0.82 1.03 1.17 1.09 1.22 1.44 1.76 1.82 1.52 1.48 1.67 1.93 2.35 2.24 2.37 2.25 2.30 1.66 1.25 1.38
0.62 0.97 0.96 0.68 0.61 0.53 0.49 0.52 0.54 0.58 0.69 0.75 0.95 1.38 1.44 1.93 2.21 2.13 2.29 2.60 2.50 2.09 1.72 1.87 1.96 2.19 2.36 1.97 1.72 1.60 1.44 1.23
0.60 0.56 0.78 1.16 1.08 0.73 0.60 0.59 0.81 1.30 1.67 1.82 1.80 2.23 2.50 2.37 2.53 2.38 1.98 2.77 2.87 2.61 2.49 2.06 2.30 2.03 1.77 1.70 1.53 1.34 1.42 1.35
1.12 1.01 0.79 0.63 0.95 1.08 0.82 0.85 1.55 2.09 2.11 2.24 1.93 2.25 2.45 2.75 2.61 2.40 2.22 2.09 2.66 2.65 2.65 2.49 1.78 1.97 1.49 1.22 1.19 1.31 1.13 1.40
1.12 1.16 1.31 1.27 0.84 1.00 1.03 1.04 1.67 1.94 1.41 1.38 1.67 1.81 1.65 1.68 1.56 1.75 1.93 1.98 1.85 1.74 1.88 1.91 1.64 1.25 1.42 1.28 1.09 0.92 1.01 0.88
0.94 1.47 1.11 0.97 1.09 1.03 0.97 1.09 1.11 1.43 1.34 1.15 1.10 1.23 1.40 1.06 0.97 1.08 1.49 1.50 1.56 1.76 1.78 1.79 1.92 1.55 1.26 1.30 1.28 1.02 0.97 0.96
0.69 0.96 1.44 0.83 0.65 0.72 0.76 0.97 1.14 1.03 1.02 0.94 0.86 0.78 0.82 0.86 0.88 0.75 0.79 0.99 1.06 1.17 1.40 1.81 2.06 2.17 1.94 1.41 1.17 1.20 1.15 1.01
0.46 0.47 1.06 1.07 0.79 0.75 0.67 0.86 1.00 0.87 0.87 0.83 0.64 0.55 0.53 0.45 0.37 0.36 0.39 0.56 0.77 1.03 1.17 1.18 1.28 1.58 1.99 1.69 1.47 1.17 1.13 1.17
0.47 0.55 0.76 1.01 0.71 0.59 0.57 0.66 0.87 0.81 0.70 0.69 0.65 0.47 0.38 0.41 0.37 0.42 0.47 0.52 0.52 0.45 0.46 0.50 0.56 0.73 1.09 1.17 1.33 1.25 1.28 1.23